Weather History for Sheldon, IA

Change the Weather History Date:

Sunday, March 3, 2013

  Actual Average Record
Temperature  
Mean Temperature 28 °F -  
Max Temperature 35 °F 37 °F 66 °F (1983)
Min Temperature 21 °F 18 °F -16 °F (2014)
Degree Days  
Heating Degree Days 37    
Moisture  
Dew Point 24 °F    
Average Humidity 85    
Maximum Humidity 100    
Minimum Humidity 65    
Precipitation  
Precipitation 0.00 in - - ()
Sea Level Pressure  
Sea Level Pressure 29.89 in    
Wind  
Wind Speed 14 mph (SE)    
Max Wind Speed 24 mph    
Max Gust Speed 31 mph    
Visibility 8 miles    
Events Rain    
Averages and records for this station are not official NWS values.
T = Trace of Precipitation, MM = Missing Value Source: NWS Daily Summary

Daily Weather History Graph

Daily Weather History Graph

Search for Another Location

Airport:

Trip Planner

Search our weather history database for the weather conditions in past years. The results will help you decide how hot, cold, wet, or windy it might be!

Date:

Astronomy

Mar. 03, 2013 Rise Set
Actual Time 6:55 AM CST 6:15 PM CST
Civil Twilight 6:27 AM CST 6:43 PM CST
Nautical Twilight 5:54 AM CST 7:16 PM CST
Astronomical Twilight 5:21 AM CST 7:49 PM CST
Moon 12:05 AM CST (3/3) 10:00 AM CST (3/3)
Length of Visible Light 12h 16m
Length of Day
11h 19m
Waning Gibbous, 63% of the Moon is Illuminated
Mar 3
Waning Gibbous
Mar 4
Last Quarter
Mar 11
New
Mar 19
First Quarter
Mar 27
Full

Hourly Weather History & Observations

Time (CST) Temp. Windchill Dew Point Humidity Pressure Visibility Wind Dir Wind Speed Gust Speed Precip Events Conditions
12:15 AM 24.8 °F 14.0 °F 23.0 °F 93% 30.05 in 10.0 mi SE 11.5 mph - N/A   Partly Cloudy
12:35 AM 24.8 °F 14.0 °F 23.0 °F 93% 30.05 in 10.0 mi SE 11.5 mph - N/A   Mostly Cloudy
12:55 AM 24.8 °F 14.0 °F 23.0 °F 93% 30.04 in 10.0 mi SE 11.5 mph - N/A   Scattered Clouds
1:15 AM 23.0 °F 12.4 °F 23.0 °F 100% 30.03 in 10.0 mi SE 10.4 mph - N/A   Mostly Cloudy
1:35 AM 23.0 °F 12.4 °F 23.0 °F 100% 30.03 in 10.0 mi SE 10.4 mph - N/A   Scattered Clouds
1:55 AM 23.0 °F 12.4 °F 21.2 °F 93% 30.03 in 10.0 mi SE 10.4 mph - N/A   Clear
2:15 AM 23.0 °F 12.4 °F 21.2 °F 93% 30.02 in 10.0 mi SE 10.4 mph - N/A   Scattered Clouds
2:35 AM 23.0 °F 11.1 °F 21.2 °F 93% 30.01 in 10.0 mi SE 12.7 mph - N/A   Partly Cloudy
3:15 AM 23.0 °F 11.1 °F 21.2 °F 93% 29.99 in 10.0 mi SE 12.7 mph - N/A   Clear
3:35 AM 23.0 °F 11.7 °F 21.2 °F 93% 29.98 in 9.0 mi SE 11.5 mph - N/A   Clear
3:55 AM 23.0 °F 12.4 °F 21.2 °F 93% 29.98 in 8.0 mi SSE 10.4 mph - N/A   Clear
4:15 AM 23.0 °F 12.4 °F 21.2 °F 93% 29.98 in 8.0 mi SSE 10.4 mph - N/A   Clear
4:35 AM 23.0 °F 13.1 °F 21.2 °F 93% 29.97 in 8.0 mi SSE 9.2 mph - N/A   Clear
4:55 AM 23.0 °F 11.7 °F 21.2 °F 93% 29.97 in 8.0 mi SSE 11.5 mph - N/A   Clear
5:15 AM 21.2 °F 10.1 °F 21.2 °F 100% 29.97 in 8.0 mi SSE 10.4 mph - N/A   Clear
5:35 AM 21.2 °F 9.5 °F 21.2 °F 100% 29.97 in 8.0 mi SE 11.5 mph - N/A   Clear
6:15 AM 21.2 °F 10.1 °F 19.4 °F 93% 29.97 in 8.0 mi SE 10.4 mph - N/A   Clear
6:35 AM 21.2 °F 9.5 °F 19.4 °F 93% 29.96 in 8.0 mi SE 11.5 mph - N/A   Clear
6:55 AM 21.2 °F 8.9 °F 19.4 °F 93% 29.96 in 7.0 mi SE 12.7 mph - N/A   Clear
7:15 AM 21.2 °F 9.5 °F 19.4 °F 93% 29.96 in 7.0 mi SE 11.5 mph - N/A   Clear
7:35 AM 21.2 °F 10.1 °F 19.4 °F 93% 29.95 in 7.0 mi SE 10.4 mph - N/A   Partly Cloudy
7:55 AM 23.0 °F 12.4 °F 21.2 °F 93% 29.95 in 7.0 mi ESE 10.4 mph - N/A   Scattered Clouds
8:15 AM 24.8 °F 14.0 °F 21.2 °F 86% 29.95 in 8.0 mi ESE 11.5 mph - N/A   Mostly Cloudy
8:35 AM 24.8 °F 12.9 °F 21.2 °F 86% 29.94 in 8.0 mi SE 13.8 mph - N/A   Partly Cloudy
8:55 AM 26.6 °F 14.7 °F 23.0 °F 86% 29.94 in 8.0 mi SE 15.0 mph - N/A   Partly Cloudy
9:15 AM 26.6 °F 15.2 °F 23.0 °F 86% 29.94 in 9.0 mi SE 13.8 mph 20.7 mph N/A   Clear
9:35 AM 28.4 °F 17.0 °F 23.0 °F 80% 29.93 in 9.0 mi SE 15.0 mph - N/A   Scattered Clouds
9:55 AM 28.4 °F 16.6 °F 23.0 °F 80% 29.93 in 9.0 mi SE 16.1 mph - N/A   Partly Cloudy
10:15 AM 30.2 °F 18.5 °F 23.0 °F 75% 29.93 in 9.0 mi SE 17.3 mph - N/A   Partly Cloudy
10:35 AM 30.2 °F 19.3 °F 23.0 °F 75% 29.92 in 9.0 mi SE 15.0 mph - N/A   Partly Cloudy
10:55 AM 32.0 °F 20.5 °F 23.0 °F 69% 29.91 in 8.0 mi SE 18.4 mph - N/A   Clear
11:15 AM 32.0 °F 20.8 °F 23.0 °F 69% 29.90 in 9.0 mi SE 17.3 mph 24.2 mph N/A   Clear
11:35 AM 32.0 °F 21.2 °F 23.0 °F 69% 29.89 in 10.0 mi SE 16.1 mph 25.3 mph N/A   Clear
11:55 AM 33.8 °F 22.5 °F 23.0 °F 65% 29.89 in 10.0 mi SE 19.6 mph - N/A   Clear
12:15 PM 33.8 °F 22.5 °F 24.8 °F 70% 29.88 in 9.0 mi SE 19.6 mph - N/A   Clear
12:35 PM 35.6 °F 24.8 °F 24.8 °F 65% 29.88 in 10.0 mi SE 19.6 mph 25.3 mph N/A   Partly Cloudy
12:55 PM 35.6 °F 25.2 °F 24.8 °F 65% 29.87 in 10.0 mi SE 18.4 mph 24.2 mph N/A   Mostly Cloudy
1:15 PM 35.6 °F 24.0 °F 24.8 °F 65% 29.86 in 10.0 mi SE 23.0 mph - N/A   Overcast
1:35 PM 35.6 °F 24.5 °F 24.8 °F 65% 29.85 in 10.0 mi SE 20.7 mph 27.6 mph N/A   Overcast
1:55 PM 35.6 °F 24.2 °F 24.8 °F 65% 29.84 in 10.0 mi SE 21.9 mph 29.9 mph N/A   Overcast
2:15 PM 35.6 °F 24.2 °F 24.8 °F 65% 29.83 in 10.0 mi SE 21.9 mph 28.8 mph N/A   Overcast
2:35 PM 35.6 °F 24.8 °F 24.8 °F 65% 29.83 in 10.0 mi SE 19.6 mph 28.8 mph N/A   Overcast
2:55 PM 35.6 °F 24.2 °F 24.8 °F 65% 29.82 in 10.0 mi SE 21.9 mph 29.9 mph N/A   Overcast
3:15 PM 35.6 °F 24.0 °F 24.8 °F 65% 29.82 in 10.0 mi SE 23.0 mph 31.1 mph N/A   Mostly Cloudy
3:35 PM 35.6 °F 23.7 °F 24.8 °F 65% 29.82 in - SE 24.2 mph 29.9 mph N/A   Scattered Clouds
4:15 PM 33.8 °F 22.2 °F 26.6 °F 75% 29.81 in 10.0 mi SE 20.7 mph 27.6 mph N/A   Overcast
4:35 PM 33.8 °F 22.8 °F 26.6 °F 75% 29.81 in 9.0 mi SE 18.4 mph 26.5 mph N/A   Overcast
4:55 PM 33.8 °F 22.8 °F 26.6 °F 75% 29.80 in 9.0 mi ESE 18.4 mph 26.5 mph N/A   Overcast
5:15 PM 33.8 °F 22.5 °F 26.6 °F 75% 29.79 in 9.0 mi ESE 19.6 mph 25.3 mph N/A   Overcast
5:35 PM 32.0 °F 19.5 °F 28.4 °F 87% 29.78 in 8.0 mi ESE 21.9 mph 28.8 mph N/A Rain Light Rain
5:55 PM 32.0 °F 20.8 °F 28.4 °F 87% 29.78 in 6.0 mi SE 17.3 mph 24.2 mph N/A Rain Light Rain
6:35 PM 32.0 °F 21.6 °F 28.4 °F 87% 29.79 in 9.0 mi SE 15.0 mph - N/A   Overcast
6:55 PM 32.0 °F 20.1 °F 28.4 °F 87% 29.79 in 9.0 mi SE 19.6 mph 25.3 mph N/A   Overcast
7:15 PM 32.0 °F 21.2 °F 28.4 °F 87% 29.79 in 10.0 mi ESE 16.1 mph 23.0 mph N/A   Overcast
7:35 PM 30.2 °F 18.1 °F 28.4 °F 93% 29.78 in 10.0 mi ESE 18.4 mph 26.5 mph N/A   Overcast
7:55 PM 30.2 °F 18.9 °F 28.4 °F 93% 29.79 in 7.0 mi ESE 16.1 mph 25.3 mph N/A Rain Light Freezing Rain
8:15 PM 30.2 °F 18.5 °F 28.4 °F 93% 29.81 in 6.0 mi SE 17.3 mph 24.2 mph N/A Rain Light Freezing Rain
8:35 PM 30.2 °F 17.8 °F 28.4 °F 93% 29.81 in 7.0 mi SE 19.6 mph - N/A   Overcast
8:55 PM 30.2 °F 18.1 °F 28.4 °F 93% 29.80 in 8.0 mi SE 18.4 mph - N/A   Overcast
9:15 PM 30.2 °F 17.1 °F 28.4 °F 93% 29.79 in 7.0 mi SE 21.9 mph 27.6 mph N/A   Overcast
9:35 PM 30.2 °F 18.5 °F 28.4 °F 93% 29.80 in 6.0 mi SE 17.3 mph 24.2 mph N/A   Overcast
9:55 PM 30.2 °F 18.5 °F 28.4 °F 93% 29.80 in 5.0 mi SE 17.3 mph 26.5 mph N/A Rain Light Freezing Rain
10:15 PM 30.2 °F 18.1 °F 28.4 °F 93% 29.80 in 5.0 mi SE 18.4 mph 25.3 mph N/A Rain Light Freezing Rain
10:35 PM 30.2 °F 18.5 °F 28.4 °F 93% 29.79 in 4.0 mi SE 17.3 mph 25.3 mph N/A Rain Light Freezing Rain
10:55 PM 30.2 °F 17.8 °F 28.4 °F 93% 29.77 in 5.0 mi SE 19.6 mph 27.6 mph N/A Rain Light Freezing Rain
11:15 PM 30.2 °F 17.8 °F 28.4 °F 93% 29.76 in 6.0 mi ESE 19.6 mph 27.6 mph N/A Rain Light Freezing Rain
11:35 PM 30.2 °F 16.8 °F 28.4 °F 93% 29.74 in 8.0 mi ESE 23.0 mph 29.9 mph N/A   Mostly Cloudy
11:55 PM 30.2 °F 17.1 °F 28.4 °F 93% 29.74 in 9.0 mi ESE 21.9 mph 29.9 mph N/A   Overcast